FENGYUN 1C DEB, 31264

Orbit data source: Space-Track

FENGYUN 1C DEB, 31264 is space debris in SSO originally from a launch on Mon, 10 May 1999 UTC launched from the Taiyaun Space Center, China (TSC). Fengyun 1C debris stems from the Chinese weather satellite Fengyun-1C, which was intentionally destroyed by a Chinese anti-satellite missile in 2007. This event dramatically increased the amount of space debris, with thousands of trackable fragments posing hazards to satellites and human spaceflight. The Fengyun 1C debris cloud has become a focal point in discussions about space sustainability and the need for international regulations to prevent the creation of new debris.

Loading next visibility...
Identifier
31264, 1999-025BMW
Orbit
SSO
Country
Flag of CNCN / PRC
Related business
Manufacturer
Unknown
Mission
Spacecraft
Bus & Motor
Unknown
Mass
Unknown
Launch date (UTC)
1999-05-10 (27 years ago)
Launch vehicle
Unknown
Launch site
Taiyaun Space Center, China (TSC)
Object type
Payload
Rocket body
Debris
Shape & HBR
Unknown shape, 0.1 m
Radar Cross Section
Medium (>0.1 m² and <1 m²)

Expand to show TLE details & history
Last TLE update: 1 day ago

TLE from 1 day ago
0 FENGYUN 1C DEB
1 31264U 99025BMW 26236.03689164  .00000656  00000-0  33612-3 0  9992
2 31264  99.0975 144.8837 0001493  35.8428 338.3397 14.19110294   131
Epoch: 2026-08-24T00:53Z
TLE epoch observation values (Epoch: 2026-08-24T00:53:07.437Z)
Latitude
13.96379°
Longitude
157.00848°
Altitude
829.529 km
Speed
7.44 km/s
True Right ascension
09h 30m 27s
True Declination
13° 53' 03"
Sunlit
Object was in daylight at epoch
Visualization orbit readout
Latitude
Unknown
Longitude
Unknown
Altitude
Unknown
Speed
Unknown
Apparent Right ascension
Unknown
Apparent Declination
Unknown
Sunlit
N/A
Visualization observer readout
Local Sidereal Time
18:46:12
Azimuth
Unknown
Elevation
Unknown
Doppler factor
Unknown
Orbital elements
Apogee altitude
826.618 km
Perigee altitude
824.467 km
Semi-major axis
7,203.679 km
Eccentricity
0.00015
Inclination
99.0975°
RAAN
144.8837°
Arg. of periapsis
35.8428°
True anomaly
338.33338°
Mean anomaly
338.3397°
Eccentric anomaly
338.33654°
Mean motion
3.54986 °/min
Orbital period
101.41 mins
BSTAR
0.00033612
Loading maneuver chart data...
Computing Atmospheric mass density...
Loading historical data...
Loading historical data...
Loading historical data...
Loading historical data...
Loading historical data...
Loading historical data...
Loading historical data...

Documentation

Showing up to 5 results
|